www.pogodaiklimat.ru

Погода и климат >> Архив погоды >> Украина >> Чернигов


АРХИВ ПОГОДЫ в Чернигове

Время (UTC), дата Ветер
(напр.,м/с)
 
Видим.   Явления Облачность Т
(С)
Тd
(С)
f
(%)
Тe
(С)
Тes
(С)
Комфортность P
(гПа)
Po
(гПа)
Тmin
(С)
Tmax
(С)
R
(мм)
R24
(мм)
S
(см)
15 12.08 ЮВ 2 20 км 3/0
[Ci fib]
+27.0 +15.9 51 +30 +33 душно 1017.8 1004.1
18 12.08 штиль 0 10 км ясно +22.2 +17.3 74 +27 +27 душно 1017.5 1003.6 +27.6
21 12.08 штиль 0 н/о ясно +17.6 +15.7 89 +18 +18 по сезону 1017.5 1003.3
00 13.08 штиль 0 н/о дымка 6/0
[Ci fib]
+16.6 +15.4 93 +16 +16 по сезону 1016.9 1002.7
03 13.08 штиль 0 4000 м дымка 8/0
[Ac trans Ci fib]
+16.4 +14.8 90 +16 +16 по сезону 1015.5 1001.3
06 13.08 Ю 2 10 км 8/4 1000 м
[Sc Ac cast Ci fib]
+22.7 +16.7 69 +27 +30 душно 1014.2 1000.3 +15.1
09 13.08 ЮЗ 4 20 км 4/0
[Ci fib]
+30.2 +18.8 51 +36 +44 очень
душно
1011.8 998.3
12 13.08 ЮЗ 4 20 км 6/3 1000 м
[Sc Ac trans Cs]
+32.9 +16.3 37 +36 +40 очень
душно
1010.5 997.1
15 13.08 ЮЗ 3 20 км 8/4 1000 м
[Cb cap Ac trans Cs]
+32.8 +20.1 47 +39 +40 очень
душно
1009.3 996.0
18 13.08 штиль 0 10 км зарница {гроза} 8/3 1000 м
[Cb calv Ac trans Cs]
+24.0 +21.6 86 +31 +31 очень
душно
1012.2 998.5 +33.9
21 13.08 штиль 0 н/о дымка 8/0
[Ac trans]
+22.3 +20.9 92 +29 +29 очень
душно
1013.6 999.8
00 14.08 З 1 н/о в посл. час гроза 10/0
[Ac und]
+20.6 +19.3 92 +26 +26 душно 1014.6 1000.7
03 14.08 З 1 4000 м дымка {гроза, ливн. осадки} 8/0
[Ac trans Ci fib]
+18.7 +18.1 96 +21 +21 комфорт 1013.8 999.8
06 14.08 штиль 0 4000 м дымка {гроза, ливн. осадки} 10/10 300 м
[St]
+20.8 +19.7 93 +25 +25 комфорт 1014.4 1000.5 +18.7 0.0
09 14.08 В 2 10 км 8/6 700 м
[Cu hum Ci fib]
+25.6 +20.7 74 +32 +37 очень
душно
1012.9 999.2
12 14.08 В 3 10 км 8/4 1000 м
[Cu med, cong Ci fib]
+28.7 +21.6 65 +37 +41 очень
душно
1010.6 997.1
15 14.08 В 2 10 км 9/0
[Cs]
+29.4 +22.2 65 +38 +40 очень
душно
1008.3 994.9
18 14.08 ЮВ 2 10 км 9/0
[Cs]
+24.0 +19.8 77 +29 +29 душно 1007.7 994.0 +31.6
21 14.08 Ю 1 н/о ясно +21.0 +18.1 84 +26 +26 душно 1008.1 994.3
00 15.08 СЗ 5 н/о 10/10 360 м
[St]
+20.4 +18.7 90 +24 +24 комфорт 1009.2 995.3
03 15.08 СЗ 7 10 км 10/10 330 м
[St]
+16.8 +15.1 90 +16 +16 по сезону 1010.8 996.7
06 15.08 С 6 10 км 10/10 500 м
[Sc]
+17.0 +14.2 84 +16 +16 по сезону 1012.0 997.9 +16.6
09 15.08 С 6 10 км 10/10 540 м
[Sc]
+17.8 +13.6 76 +17 +17 прохладно 1012.8 998.7
12 15.08 С 7 10 км 10/10 700 м
[Sc]
+19.0 +13.6 71 +19 +19 холодно 1012.8 998.8
15 15.08 С 6 10 км 10/10 900 м
[Sc]
+19.4 +13.1 67 +20 +20 прохладно 1012.1 998.1
18 15.08 С 4 10 км 10/10 800 м
[Cb cap]
+18.1 +13.0 72 +18 +18 прохладно 1012.6 998.5 +20.3
21 15.08 С 4 н/о в посл. час ливневой дождь 10/10 800 м
[Cb cap]
+15.6 +14.0 90 +15 +15 прохладно 1012.8 998.6
00 16.08 С 4 н/о {ливн. осадки} 10/10 700 м
[Cb cap]
+15.5 +13.4 87 +15 +15 по сезону 1012.1 997.9
03 16.08 С 5 10 км 10/10 630 м
[Cb cap]
+15.4 +13.4 88 +14 +14 прохладно 1011.5 997.3
06 16.08 СЗ 3 10 км 10/10 330 м
[St]
+15.8 +13.5 86 +15 +15 прохладно 1011.9 997.7 +15.0 1
09 16.08 С 3 10 км {ливн. осадки} 10/10 450 м
[Cb cap]
+17.5 +14.4 82 +18 +18 прохладно 1011.6 997.5
12 16.08 С 4 10 км {ливн. осадки} 10/10 540 м
[Sc]
+18.0 +13.2 74 +18 +18 холодно 1011.9 997.8
15 16.08 СЗ 5 10 км 10/10 570 м
[Sc]
+16.4 +12.2 76 +15 +15 очень
холодно
1012.4 998.2
18 16.08 С 3 н/о 10/10 570 м
[Sc]
+15.1 +12.6 85 +14 +14 холодно 1013.0 998.8 +18.2 0.0
21 16.08 С 2 н/о 10/10 360 м
[St]
+14.8 +12.6 87 +14 +14 прохладно 1013.1 998.9
00 17.08 С 3 н/о 10/10 360 м
[St]
+14.6 +12.2 86 +14 +14 по сезону 1012.6 998.4
03 17.08 С 3 10 км 10/10 330 м
[St]
+14.2 +12.6 90 +13 +13 прохладно 1012.2 997.9
06 17.08 С 3 10 км 10/10 330 м
[St]
+13.7 +11.8 88 +13 +13 прохладно 1012.6 998.3 +13.4
09 17.08 С 4 10 км 10/10 360 м
[St]
+15.0 +12.5 85 +14 +14 холодно 1012.6 998.4
12 17.08 СЗ 3 10 км 10/10 480 м
[Sc]
+16.0 +12.6 80 +16 +16 очень
холодно
1012.7 998.5
15 17.08 СЗ 2 10 км 10/10 570 м
[Sc]
+17.2 +13.7 80 +18 +18 прохладно 1012.2 998.1
18 17.08 СЗ 2 н/о 10/10 800 м
[Sc]
+16.3 +14.2 87 +16 +16 прохладно 1012.5 998.3 +17.3
21 17.08 СЗ 2 н/о 6/4 1000 м
[Sc Ci fib]
+15.5 +13.4 87 +15 +15 прохладно 1012.2 998.0
00 18.08 СЗ 2 н/о дымка 4/0
[Ci fib]
+13.3 +11.8 91 +13 +13 прохладно 1012.6 998.3
03 18.08 З 2 4000 м дымка 3/0
[Ci fib]
+10.9 +10.5 97 +9 +9 очень
холодно
1012.7 998.3
06 18.08 СЗ 4 10 км 8/0
[Ac trans Ci]
+16.0 +13.0 82 +15 +17 прохладно 1012.8 998.6 +10.4
09 18.08 СЗ 6 20 км 4/3 600 м
[Cu hum Ci fib]
+21.4 +12.0 55 +24 +27 комфорт 1013.1 999.2
12 18.08 З 6 20 км 4/4 1000 м
[Cu hum]
+24.0 +11.9 47 +26 +28 жарко 1013.5 999.7
15 18.08 СЗ 4 20 км 3/0
[Ci fib]
+24.2 +10.3 41 +25 +27 комфорт 1014.0 1000.2
18 18.08 З 1 н/о ясно +17.8 +13.4 75 +19 +19 по сезону 1015.5 1001.4 +25.7
21 18.08 штиль 0 н/о дымка ясно +12.7 +12.0 96 +12 +12 холодно 1016.6 1002.2
00 19.08 штиль 0 н/о дымка ясно +11.3 +10.7 96 +11 +11 прохладно 1017.4 1002.9
03 19.08 штиль 0 4000 м дымка ясно +9.4 +9.0 97 +8 +8 очень
холодно
1017.7 1003.1
06 19.08 штиль 0 10 км ясно +18.3 +13.7 75 +19 +25 тепло 1019.2 1005.0 +9.4
09 19.08 ЮЗ 3 20 км ясно +26.4 +11.3 39 +28 +38 жарко 1018.8 1005.0

 

Местоположение метеостанции Чернигов (Черниговская область, Украина): широта 51.47 долгота 31.25 высота над уровнем моря 141 м.

В архиве по умолчанию представлена погода в Чернигове за последнюю неделю. Архивные данные за месяц целиком и за предыдущие месяцы, начиная с января 2011 года, Вы можете получить, выбрав интересующий диапазон дат из раскрывающегося списка и нажав кнопку "Ввод!".


*Определитесь, кто Вы:
робот инопланетянин человек

Внимание! Время в таблицах - всемирное. Для получения местного времени необходимо прибавить поправку, которая равна 2 ч.

Смотрите также архив погоды в соседних городах и на ближайших метеорологических станциях:

Погода в Покошичах (Черниговская область, Украина) (52 км)
Погода в Щорсе (Черниговская область, Украина) (62 км)
Погода в Остере (Черниговская область, Украина) (63 км)
Погода в Нежине (Черниговская область, Украина) (65 км)
Погода в Чернобыле (Киевская область, Украина) (74 км)
Погода в Брагине (Гомельская область, Беларусь) (77 км)
Погода в Гомеле (Гомельская область, Беларусь) (105 км)
Погода в Вышгороде (Киевская область, Украина) (113 км)
Погода в Семеновке (Черниговская область, Украина) (121 км)
Погода в Барышевке (Киевская область, Украина) (122 км)

Пояснения к столбцам:

Ветер - указаны скорость ветра в м/с - средняя за 10 мин, порывы в срок и между сроками (в фигурных скобках) и направление, откуда дует ветер: С - северный, СВ - северо-восточный, В - восточный, ЮВ - юго-восточный, Ю - южный, ЮЗ - юго-западный, З - западный, СЗ - северо-западный.
Видимость - горизонтальная дальность видимости в метрах или километрах. При видимости от 1 до 10 км при отсутствии осадков обычно наблюдается дымка, при ухудшении видимости до 1 км и менее - туман. В сухую погоду видимость может ухудшаться дымом, пылью или мглою.
Явления - указаны атмосферные явления, наблюдавшиеся в срок или в последний час перед сроком; фигурными скобками обозначены явления, наблюдавшиеся между сроками (за 1-3 часа до срока); квадратными скобками обозначены град или гололедные отложения с указанием их диаметра в мм.
Облачность - указаны через наклонную черту общая и нижняя облачность в баллах и высота нижней границы облаков в метрах; квадратными скобками обозначены формы облаков: Ci - перистые, Cs - перисто-слоистые, Cc - перисто-кучевые, Ac - высококучевые, As - высокослоистые, Sc - слоисто-кучевые, Ns - слоисто-дождевые, Cu - кучевые, Cb - кучево-дождевые. Подробнее классификацию облаков см. в Атласе облаков (PDF).
T - Температура воздуха - температура, измеренная на высоте 2 м над землей.
Td - Температура точки росы - температура, при понижении до которой содержащийся в воздухе водяной пар достигнет насыщения.
f - Относительная влажность воздуха - влажноcть воздуха, измеренная на высоте 2 м над землей.
Te - Эффективная температура - температура, которую ощущает одетый по сезону человек в тени. Характеристика душности погоды. При расчете учитывается влияние влажности воздуха и скорости ветра на теплоощущения человека.
Tes - Эффективная температура на солнце - температура, которую ощущает человек, с поправкой на солнечный нагрев. Характеристика знойности погоды. Зависит от высоты солнца над горизонтом, облачности и скорости ветра. Ночью, в пасмурную погоду, а также при ветре 12 м/с и более поправка равна нулю.
P - Атмосферное давление - приведенное к уровню моря атмосферное давление.
Po - Атмосферное давление - измеренное на уровне метеостанции атмосферное давление.
Tmin - Минимальная температура - минимум температуры воздуха на высоте 2 м над землей.
Tmax - Максимальная температура - максимум температуры воздуха на высоте 2 м над землей.
R - Количество осадков - Количество выпавших осадков за период времени, мм. При наведении курсора мыши на число - период времени, за который выпало указанное количество осадков.
R24 - Количество осадков - Количество выпавших осадков за 24 часа, мм.
S - Снежный покров - Высота снежного покрова, см. При наведении курсора мыши на число - состояние снежного покрова и степень покрытия местности в баллах.